Regional Weather Roundup
Issued by NWS

Home | Current Version | Previous Version | Text Only | Print | Product List | Glossary Off
Versions: 1 2 3 4 5 6 7 8 9 10 11 12 13 14 15 16 17 18 19 20 21 22 23 24 25 26 27 28 29 30 31 32 33 34 35 36 37 38 39 40 41 42 43 44 45 46 47 48 49 50

000
ASUS43 KBIS 291902
RWRND

NORTH DAKOTA REGIONAL WEATHER ROUNDUP
NATIONAL WEATHER SERVICE BISMARCK ND
200 PM CDT SAT AUG 29 2015

NOTE: "FAIR" INDICATES FEW OR NO CLOUDS BELOW 12,000 FEET WITH NO
SIGNIFICANT WEATHER AND/OR OBSTRUCTIONS TO VISIBILITY.


NDZ001>003-009>011-017-292000-
NORTHWEST NORTH DAKOTA

CITY           SKY/WX    TMP DP  RH WIND       PRES   REMARKS
WILLISTON      MOSUNNY   90  48  23 VRB6      29.86F HAZE
MINOT          PTSUNNY   89  50  26 S14       29.85F HAZE
MINOT AFB      PTSUNNY   88  53  30 SW9       29.84F
$$

NDZ018>021-031>035-040>046-292000-
SOUTHWEST NORTH DAKOTA

CITY           SKY/WX    TMP DP  RH WIND       PRES   REMARKS
BISMARCK       CLOUDY    87  61  41 VRB3      29.91F HAZE
DICKINSON      SUNNY     96  43  16 S13       29.90F HAZE    HX  92
GARRISON         N/A     87  56  34 S8        29.88F
HETTINGER ARPT SUNNY     94  47  20 S12       29.96F HX  90
$$

NDZ004>008-012>016-024-026-027-054-292000-
NORTHEAST NORTH DAKOTA

CITY           SKY/WX    TMP DP  RH WIND       PRES   REMARKS
GRAND FORKS    CLOUDY    76  68  76 S8        29.90S
GRND FRKS AFB  PTSUNNY   78  69  73 S9        29.89F
DEVILS LAKE    MOSUNNY   79  64  61 SE7       29.87F
$$

NDZ022-023-025-028>030-036>039-047>053-292000-
SOUTHEAST NORTH DAKOTA

CITY           SKY/WX    TMP DP  RH WIND       PRES   REMARKS
FARGO          MOSUNNY   81  66  60 S15       29.93F
JAMESTOWN      MOSUNNY   80  68  66 S7        29.92F
$$




USA.gov is the U.S. government's official web portal to all federal, state and local government web resources and services.